TimeCST,TemperatureF,Dew PointF,Humidity,Sea Level PressureIn,VisibilityMPH,Wind Direction,Wind SpeedMPH,Gust SpeedMPH,PrecipitationIn,Events,Conditions,WindDirDegrees,DateUTC
12:53 AM,30.9,26.1,82,29.91,10.0,SSE,8.1,-,N/A,,Clear,160,2013-02-17 06:53:00
1:53 AM,30.0,26.1,85,29.89,10.0,South,9.2,-,N/A,,Clear,170,2013-02-17 07:53:00
2:53 AM,30.0,26.1,85,29.87,10.0,SSE,4.6,-,N/A,,Clear,160,2013-02-17 08:53:00
3:53 AM,30.0,26.1,85,29.83,10.0,SSE,9.2,-,N/A,,Clear,160,2013-02-17 09:53:00
4:53 AM,32.0,27.0,82,29.80,10.0,South,10.4,-,N/A,,Clear,180,2013-02-17 10:53:00
5:53 AM,35.1,28.0,76,29.78,10.0,South,16.1,-,N/A,,Clear,190,2013-02-17 11:53:00
6:53 AM,34.0,27.0,75,29.76,10.0,South,12.7,-,N/A,,Clear,180,2013-02-17 12:53:00
7:53 AM,33.1,26.1,75,29.73,10.0,South,10.4,-,N/A,,Clear,180,2013-02-17 13:53:00
8:53 AM,35.1,28.0,76,29.70,10.0,South,11.5,-,N/A,,Clear,170,2013-02-17 14:53:00
9:53 AM,39.9,28.0,63,29.66,10.0,SSW,18.4,-,N/A,,Clear,200,2013-02-17 15:53:00
10:53 AM,41.0,28.9,62,29.62,10.0,SSW,18.4,-,N/A,,Clear,210,2013-02-17 16:53:00
11:53 AM,46.0,30.9,56,29.60,10.0,SSW,16.1,-,N/A,,Clear,210,2013-02-17 17:53:00
12:53 PM,48.0,30.0,50,29.54,10.0,SSW,17.3,-,N/A,,Clear,210,2013-02-17 18:53:00
1:53 PM,54.0,30.0,40,29.51,10.0,SSW,13.8,-,N/A,,Clear,210,2013-02-17 19:53:00
2:53 PM,55.9,27.0,33,29.48,10.0,WSW,17.3,24.2,N/A,,Clear,250,2013-02-17 20:53:00
3:53 PM,55.0,28.0,35,29.47,10.0,WSW,10.4,-,N/A,,Clear,240,2013-02-17 21:53:00
4:53 PM,51.1,30.0,44,29.49,10.0,WNW,6.9,-,N/A,,Clear,300,2013-02-17 22:53:00
5:53 PM,46.9,30.0,52,29.52,10.0,WNW,8.1,-,N/A,,Clear,300,2013-02-17 23:53:00
6:53 PM,43.0,30.0,60,29.57,10.0,West,6.9,-,N/A,,Clear,270,2013-02-18 00:53:00
7:53 PM,39.9,30.0,68,29.60,10.0,WNW,23.0,32.2,N/A,,Clear,300,2013-02-18 01:53:00
8:53 PM,41.0,30.9,67,29.64,10.0,NW,20.7,-,N/A,,Clear,320,2013-02-18 02:53:00
9:53 PM,39.0,30.9,73,29.66,10.0,WNW,13.8,-,N/A,,Mostly Cloudy,300,2013-02-18 03:53:00
11:53 PM,37.9,28.9,70,29.70,10.0,WNW,17.3,-,N/A,,Clear,300,2013-02-18 05:53:00